Hourly Data Report for October 08, 2016

All times are specified in Local Standard Time (LST). Add 1 hour to adjust for Daylight Saving Time where and when it is observed.

MONCTON INTL A
NEW BRUNSWICK

46°06'44.000" N
64°40'43.000" W
70.70 m
8103201
71705
YQM

Download Data

Hourly Data (October 2016)
Hourly Data Report for October 8, 2016
Temp Definition
°C
Dew Point Temp Definition
°C
Rel Hum Definition
%
Wind Dir Definition
10's deg

Wind Spd Definition
km/h
Visibility Definition
km
Stn Press Definition
kPa
Hmdx Definition


Wind Chill Definition


Weather Definition


TIME
00:00 Legend Double Dagger 10.9 9.3 90 24 14 24.1 101.41     LegendNANA
01:00 Legend Double Dagger 10.2 9.0 92 23 14 24.1 101.39     LegendNANA
02:00 Legend Double Dagger 9.7 8.3 91 24 15 24.1 101.36     Mainly Clear
03:00 Legend Double Dagger 9.4 8.2 92 22 7 24.1 101.31     LegendNANA
04:00 Legend Double Dagger 8.1 7.4 95 18 9 24.1 101.29     LegendNANA
05:00 Legend Double Dagger 7.5 6.8 95 18 7 24.1 101.29     Mainly Clear
06:00 Legend Double Dagger 6.8 6.4 97 21 5 24.1 101.29     LegendNANA
07:00 Legend Double Dagger 7.3 7.0 98 18 13 24.1 101.32     LegendNANA
08:00 Legend Double Dagger 9.6 9.3 98 21 6 24.1 101.33     Clear
09:00 Legend Double Dagger 12.9 10.6 86 23 12 24.1 101.34     LegendNANA
10:00 Legend Double Dagger 17.2 10.4 64 21 8 24.1 101.30     LegendNANA
11:00 Legend Double Dagger 20.7 11.5 55 20 12 24.1 101.23     Mainly Clear
12:00 Legend Double Dagger 23.1 8.6 39 20 29 24.1 101.14     LegendNANA
13:00 Legend Double Dagger 23.4 7.3 35 21 32 24.1 101.05     LegendNANA
14:00 Legend Double Dagger 22.8 7.9 38 20 31 24.1 100.98     Mostly Cloudy
15:00 Legend Double Dagger 21.6 6.8 38 20 36 24.1 100.95     LegendNANA
16:00 Legend Double Dagger 20.8 9.8 49 21 27 24.1 100.95     LegendNANA
17:00 Legend Double Dagger 19.5 10.1 54 20 15 24.1 100.94     Cloudy
18:00 Legend Double Dagger 17.6 10.1 61 20 14 24.1 100.90     LegendNANA
19:00 Legend Double Dagger 15.2 10.4 73 17 10 24.1 100.85     LegendNANA
20:00 Legend Double Dagger 13.5 10.9 84 16 9 24.1 100.85     Mainly Clear
21:00 Legend Double Dagger 13.2 10.9 86 18 12 24.1 100.81     LegendNANA
22:00 Legend Double Dagger 13.8 11.7 87 19 10 24.1 100.81     LegendNANA
23:00 Legend Double Dagger 14.5 11.7 83 18 17 24.1 100.75     Mostly Cloudy

Notes on Data Quality.

Legend

  • E = Estimated
  • M = Missing
  • NA = Not Available
  • ‡ = Partner data that is not subject to review by the National Climate Archives
Date modified: